Time,TemperatureF,DewpointF,PressureIn,WindDirection,WindDirectionDegrees,WindSpeedMPH,WindSpeedGustMPH,Humidity,HourlyPrecipIn,Conditions,Clouds,dailyrainin,SoftwareType,DateUTC
2013-09-29 00:05:00,58.5,55.0,29.95,SSW,212,1.0,1.0,88,0.00,,,0.00,Wunderground v.1.15,2013-09-29 07:05:00,
2013-09-29 00:15:00,58.2,54.3,29.97,West,264,0.0,1.0,87,0.00,,,0.00,Wunderground v.1.15,2013-09-29 07:15:00,
2013-09-29 00:25:00,58.0,54.5,29.95,SSW,208,0.0,0.0,88,0.00,,,0.00,Wunderground v.1.15,2013-09-29 07:25:00,
2013-09-29 00:35:00,58.3,53.8,29.97,WSW,251,1.0,2.0,85,0.00,,,0.00,Wunderground v.1.15,2013-09-29 07:35:00,
2013-09-29 00:44:00,58.4,53.6,29.95,SSE,158,1.0,1.0,84,0.00,,,0.00,Wunderground v.1.15,2013-09-29 07:44:00,
2013-09-29 00:50:00,58.2,53.7,29.95,SSW,200,1.0,1.0,85,0.00,,,0.00,Wunderground v.1.15,2013-09-29 07:50:00,
2013-09-29 00:59:00,57.9,53.7,29.95,SSW,200,0.0,0.0,86,0.00,,,0.00,Wunderground v.1.15,2013-09-29 07:59:00,
2013-09-29 01:04:00,57.8,54.0,29.95,SSW,202,0.0,0.0,87,0.00,,,0.00,Wunderground v.1.15,2013-09-29 08:04:00,
2013-09-29 01:10:00,57.8,54.3,29.96,SW,230,0.0,0.0,88,0.00,,,0.00,Wunderground v.1.15,2013-09-29 08:10:00,
2013-09-29 01:20:00,57.8,54.3,29.97,West,276,1.0,3.0,88,0.00,,,0.00,Wunderground v.1.15,2013-09-29 08:20:00,
2013-09-29 01:30:00,57.8,54.6,29.97,WSW,238,0.0,0.0,89,0.00,,,0.00,Wunderground v.1.15,2013-09-29 08:30:00,
2013-09-29 01:35:00,57.6,54.4,29.98,WSW,238,0.0,0.0,89,0.00,,,0.00,Wunderground v.1.15,2013-09-29 08:35:00,
2013-09-29 01:44:00,57.5,54.6,29.98,SE,141,1.0,1.0,90,0.00,,,0.00,Wunderground v.1.15,2013-09-29 08:44:00,
2013-09-29 01:49:00,57.4,54.5,29.98,SE,140,1.0,1.0,90,0.00,,,0.00,Wunderground v.1.15,2013-09-29 08:49:00,
2013-09-29 02:00:00,57.0,54.1,29.98,SE,141,0.0,0.0,90,0.00,,,0.00,Wunderground v.1.15,2013-09-29 09:00:00,
2013-09-29 02:10:00,56.6,53.7,29.99,SSE,153,0.0,0.0,90,0.00,,,0.00,Wunderground v.1.15,2013-09-29 09:10:00,
2013-09-29 02:20:00,57.0,54.4,29.98,SSW,213,1.0,1.0,91,0.00,,,0.00,Wunderground v.1.15,2013-09-29 09:20:00,
2013-09-29 02:29:00,57.4,54.8,29.98,SSW,194,1.0,1.0,91,0.00,,,0.00,Wunderground v.1.15,2013-09-29 09:29:00,
2013-09-29 02:35:00,57.4,54.8,29.98,SSW,196,1.0,1.0,91,0.00,,,0.00,Wunderground v.1.15,2013-09-29 09:35:00,
2013-09-29 02:45:00,57.3,54.7,29.98,SSW,196,0.0,0.0,91,0.00,,,0.00,Wunderground v.1.15,2013-09-29 09:45:00,
2013-09-29 02:55:00,57.1,54.5,29.98,SSW,196,0.0,1.0,91,0.00,,,0.00,Wunderground v.1.15,2013-09-29 09:55:00,
2013-09-29 03:00:00,57.0,54.4,29.98,SSW,196,0.0,0.0,91,0.00,,,0.00,Wunderground v.1.15,2013-09-29 10:00:00,
2013-09-29 03:10:00,56.7,54.1,29.97,SSW,196,0.0,0.0,91,0.00,,,0.00,Wunderground v.1.15,2013-09-29 10:10:00,
2013-09-29 03:20:00,56.6,54.3,29.97,SSW,203,1.0,2.0,92,0.00,,,0.00,Wunderground v.1.15,2013-09-29 10:20:00,
2013-09-29 03:30:00,56.7,54.4,29.96,SW,229,1.0,3.0,92,0.00,,,0.00,Wunderground v.1.15,2013-09-29 10:30:00,
2013-09-29 03:35:00,56.8,54.2,29.96,SSW,202,2.0,3.0,91,0.00,,,0.00,Wunderground v.1.15,2013-09-29 10:35:00,
2013-09-29 03:44:00,56.8,54.2,29.96,WSW,243,1.0,2.0,91,0.00,,,0.00,Wunderground v.1.15,2013-09-29 10:44:00,
2013-09-29 03:49:00,56.9,54.3,29.96,SE,146,2.0,2.0,91,0.00,,,0.00,Wunderground v.1.15,2013-09-29 10:49:00,
2013-09-29 04:00:00,56.8,54.2,29.95,SSW,193,1.0,1.0,91,0.00,,,0.00,Wunderground v.1.15,2013-09-29 11:00:00,
2013-09-29 04:10:00,56.6,54.0,29.95,SSE,150,1.0,1.0,91,0.00,,,0.00,Wunderground v.1.15,2013-09-29 11:10:00,
2013-09-29 04:20:00,56.3,53.7,29.96,SSE,157,0.0,0.0,91,0.00,,,0.00,Wunderground v.1.15,2013-09-29 11:20:00,
2013-09-29 04:29:00,56.1,53.5,29.96,South,173,0.0,0.0,91,0.00,,,0.00,Wunderground v.1.15,2013-09-29 11:29:00,
2013-09-29 04:35:00,55.9,53.3,29.96,SSE,162,0.0,0.0,91,0.00,,,0.00,Wunderground v.1.15,2013-09-29 11:35:00,
2013-09-29 04:44:00,55.8,53.2,29.95,SSE,158,1.0,1.0,91,0.00,,,0.00,Wunderground v.1.15,2013-09-29 11:44:00,
2013-09-29 04:49:00,55.9,53.6,29.95,SSW,203,1.0,2.0,92,0.00,,,0.00,Wunderground v.1.15,2013-09-29 11:49:00,
2013-09-29 04:55:00,55.9,53.6,29.96,SSW,201,1.0,2.0,92,0.00,,,0.00,Wunderground v.1.15,2013-09-29 11:55:00,
2013-09-29 05:05:00,55.9,53.6,29.96,SW,230,1.0,1.0,92,0.00,,,0.00,Wunderground v.1.15,2013-09-29 12:05:00,
2013-09-29 05:15:00,55.6,53.0,29.96,SSW,203,0.0,0.0,91,0.00,,,0.00,Wunderground v.1.15,2013-09-29 12:15:00,
2013-09-29 05:20:00,55.5,52.6,29.96,SSW,203,0.0,0.0,90,0.00,,,0.00,Wunderground v.1.15,2013-09-29 12:20:00,
2013-09-29 05:29:00,55.1,52.2,29.96,SSW,202,0.0,1.0,90,0.00,,,0.00,Wunderground v.1.15,2013-09-29 12:29:00,
2013-09-29 05:34:00,54.8,51.6,29.96,SSW,202,0.0,1.0,89,0.00,,,0.00,Wunderground v.1.15,2013-09-29 12:34:00,
2013-09-29 05:45:00,53.9,50.1,29.96,SSW,202,0.0,0.0,87,0.00,,,0.00,Wunderground v.1.15,2013-09-29 12:45:00,
2013-09-29 05:50:00,53.6,49.5,29.96,SSW,202,0.0,0.0,86,0.00,,,0.00,Wunderground v.1.15,2013-09-29 12:50:00,
2013-09-29 06:00:00,53.5,49.1,29.97,SSW,203,0.0,0.0,85,0.00,,,0.00,Wunderground v.1.15,2013-09-29 13:00:00,
2013-09-29 06:05:00,53.6,48.9,29.97,SSW,203,0.0,0.0,84,0.00,,,0.00,Wunderground v.1.15,2013-09-29 13:05:00,
2013-09-29 06:14:00,53.3,47.9,29.97,SSW,203,0.0,0.0,82,0.00,,,0.00,Wunderground v.1.15,2013-09-29 13:14:00,
2013-09-29 06:19:00,53.2,47.8,29.96,SSW,202,0.0,0.0,82,0.00,,,0.00,Wunderground v.1.15,2013-09-29 13:19:00,
2013-09-29 06:30:00,53.2,47.2,29.97,SSW,195,0.0,1.0,80,0.00,,,0.00,Wunderground v.1.15,2013-09-29 13:30:00,
2013-09-29 06:35:00,53.2,47.2,29.97,SSW,200,0.0,1.0,80,0.00,,,0.00,Wunderground v.1.15,2013-09-29 13:35:00,
2013-09-29 06:45:00,53.3,47.3,29.98,SW,227,0.0,0.0,80,0.00,,,0.00,Wunderground v.1.15,2013-09-29 13:45:00,
2013-09-29 06:50:00,53.1,46.8,29.98,SW,227,0.0,0.0,79,0.00,,,0.00,Wunderground v.1.15,2013-09-29 13:50:00,
2013-09-29 06:59:00,52.7,46.4,29.98,SW,226,0.0,0.0,79,0.00,,,0.00,Wunderground v.1.15,2013-09-29 13:59:00,
2013-09-29 07:04:00,52.5,46.5,29.98,SW,226,0.0,0.0,80,0.00,,,0.00,Wunderground v.1.15,2013-09-29 14:04:00,
2013-09-29 07:15:00,52.2,46.9,29.98,SW,226,0.0,0.0,82,0.00,,,0.00,Wunderground v.1.15,2013-09-29 14:15:00,
2013-09-29 07:25:00,52.3,47.3,29.99,SW,226,0.0,0.0,83,0.00,,,0.00,Wunderground v.1.15,2013-09-29 14:25:00,
2013-09-29 07:35:00,52.6,47.6,29.99,SW,226,0.0,0.0,83,0.00,,,0.00,Wunderground v.1.15,2013-09-29 14:35:00,
2013-09-29 07:44:00,53.0,48.0,29.99,SW,226,0.0,0.0,83,0.00,,,0.00,Wunderground v.1.15,2013-09-29 14:44:00,
2013-09-29 07:50:00,53.2,48.2,29.99,SW,226,0.0,0.0,83,0.00,,,0.00,Wunderground v.1.15,2013-09-29 14:50:00,
2013-09-29 08:00:00,54.1,49.1,29.99,SW,226,0.0,0.0,83,0.00,,,0.00,Wunderground v.1.15,2013-09-29 15:00:00,
2013-09-29 08:10:00,55.3,49.6,29.98,SW,225,0.0,0.0,81,0.00,,,0.00,Wunderground v.1.15,2013-09-29 15:10:00,
2013-09-29 08:20:00,57.0,50.2,29.98,SW,225,0.0,0.0,78,0.00,,,0.00,Wunderground v.1.15,2013-09-29 15:20:00,
2013-09-29 08:29:00,59.4,51.1,29.98,SSW,212,0.0,2.0,74,0.00,,,0.00,Wunderground v.1.15,2013-09-29 15:29:00,
2013-09-29 08:35:00,60.0,51.3,29.98,SSW,197,1.0,2.0,73,0.00,,,0.00,Wunderground v.1.15,2013-09-29 15:35:00,
2013-09-29 08:44:00,60.3,51.6,29.99,WSW,237,0.0,1.0,73,0.00,,,0.00,Wunderground v.1.15,2013-09-29 15:44:00,
2013-09-29 08:49:00,60.6,51.1,29.98,West,274,1.0,2.0,71,0.00,,,0.00,Wunderground v.1.15,2013-09-29 15:49:00,
2013-09-29 08:55:00,60.8,51.7,29.98,West,274,1.0,2.0,72,0.00,,,0.00,Wunderground v.1.15,2013-09-29 15:55:00,
2013-09-29 09:05:00,61.2,52.5,29.98,West,274,0.0,0.0,73,0.00,,,0.00,Wunderground v.1.15,2013-09-29 16:05:00,
2013-09-29 09:15:00,62.1,53.7,29.98,West,269,0.0,0.0,74,0.00,,,0.00,Wunderground v.1.15,2013-09-29 16:15:00,
2013-09-29 09:20:00,62.9,54.9,29.99,West,269,1.0,1.0,75,0.00,,,0.00,Wunderground v.1.15,2013-09-29 16:20:00,
2013-09-29 09:29:00,63.4,55.7,29.99,WNW,295,1.0,1.0,76,0.00,,,0.00,Wunderground v.1.15,2013-09-29 16:29:00,
2013-09-29 09:34:00,64.0,55.9,29.99,WSW,243,1.0,3.0,75,0.00,,,0.00,Wunderground v.1.15,2013-09-29 16:34:00,
2013-09-29 09:45:00,64.6,56.5,29.99,West,270,2.0,2.0,75,0.00,,,0.00,Wunderground v.1.15,2013-09-29 16:45:00,
2013-09-29 09:55:00,65.1,56.2,30.00,West,261,3.0,5.0,73,0.00,,,0.00,Wunderground v.1.15,2013-09-29 16:55:00,
2013-09-29 10:05:00,65.1,56.6,29.99,WSW,246,4.0,4.0,74,0.00,,,0.00,Wunderground v.1.15,2013-09-29 17:05:00,
2013-09-29 10:14:00,65.1,56.2,30.00,WSW,245,3.0,5.0,73,0.00,,,0.00,Wunderground v.1.15,2013-09-29 17:14:00,
2013-09-29 10:20:00,65.0,56.5,30.00,West,274,3.0,3.0,74,0.00,,,0.00,Wunderground v.1.15,2013-09-29 17:20:00,
2013-09-29 10:30:00,65.1,56.2,30.00,WSW,250,2.0,2.0,73,0.00,,,0.00,Wunderground v.1.15,2013-09-29 17:30:00,
2013-09-29 10:40:00,66.0,56.3,29.99,West,272,3.0,3.0,71,0.00,,,0.00,Wunderground v.1.15,2013-09-29 17:40:00,
2013-09-29 10:50:00,67.5,57.0,29.99,SSW,212,2.0,3.0,69,0.00,,,0.00,Wunderground v.1.15,2013-09-29 17:50:00,
2013-09-29 10:59:00,67.7,56.8,29.99,West,275,2.0,3.0,68,0.00,,,0.00,Wunderground v.1.15,2013-09-29 17:59:00,
2013-09-29 11:04:00,67.4,56.1,29.99,SW,233,2.0,5.0,67,0.00,,,0.00,Wunderground v.1.15,2013-09-29 18:04:00,
2013-09-29 11:14:00,68.4,56.6,29.99,West,271,2.0,2.0,66,0.00,,,0.00,Wunderground v.1.15,2013-09-29 18:14:00,
2013-09-29 11:19:00,68.4,56.6,29.99,NNW,333,2.0,2.0,66,0.00,,,0.00,Wunderground v.1.15,2013-09-29 18:19:00,
2013-09-29 11:30:00,69.0,57.6,29.99,West,265,3.0,3.0,67,0.00,,,0.00,Wunderground v.1.15,2013-09-29 18:30:00,
2013-09-29 11:35:00,69.9,57.2,29.99,WSW,252,2.0,3.0,64,0.00,,,0.00,Wunderground v.1.15,2013-09-29 18:35:00,
2013-09-29 11:44:00,70.6,56.9,29.99,West,273,2.0,3.0,62,0.00,,,0.00,Wunderground v.1.15,2013-09-29 18:44:00,
2013-09-29 11:50:00,71.1,57.0,29.99,WSW,244,3.0,5.0,61,0.00,,,0.00,Wunderground v.1.15,2013-09-29 18:50:00,
2013-09-29 11:59:00,70.7,56.1,29.99,SW,228,3.0,3.0,60,0.00,,,0.00,Wunderground v.1.15,2013-09-29 18:59:00,
2013-09-29 12:04:00,71.3,56.7,29.98,SW,221,3.0,4.0,60,0.00,,,0.00,Wunderground v.1.15,2013-09-29 19:04:00,
2013-09-29 12:15:00,70.9,55.9,29.98,NW,306,4.0,6.0,59,0.00,,,0.00,Wunderground v.1.15,2013-09-29 19:15:00,
2013-09-29 12:25:00,71.2,56.6,29.98,SW,224,3.0,4.0,60,0.00,,,0.00,Wunderground v.1.15,2013-09-29 19:25:00,
2013-09-29 12:35:00,71.8,55.7,29.97,SW,219,4.0,8.0,57,0.00,,,0.00,Wunderground v.1.15,2013-09-29 19:35:00,
2013-09-29 12:44:00,72.6,56.5,29.97,WSW,250,4.0,4.0,57,0.00,,,0.00,Wunderground v.1.15,2013-09-29 19:44:00,
2013-09-29 12:49:00,72.8,56.7,29.97,SSW,208,3.0,6.0,57,0.00,,,0.00,Wunderground v.1.15,2013-09-29 19:49:00,
2013-09-29 12:59:00,73.7,57.0,29.97,West,271,4.0,4.0,56,0.00,,,0.00,Wunderground v.1.15,2013-09-29 19:59:00,
2013-09-29 13:05:00,73.6,56.9,29.97,West,279,4.0,4.0,56,0.00,,,0.00,Wunderground v.1.15,2013-09-29 20:05:00,
2013-09-29 13:15:00,73.2,56.6,29.96,SSW,198,4.0,5.0,56,0.00,,,0.00,Wunderground v.1.15,2013-09-29 20:15:00,
2013-09-29 13:20:00,73.7,56.0,29.97,WSW,243,4.0,6.0,54,0.00,,,0.00,Wunderground v.1.15,2013-09-29 20:20:00,
2013-09-29 13:29:00,74.0,56.8,29.96,West,281,4.0,4.0,55,0.00,,,0.00,Wunderground v.1.15,2013-09-29 20:29:00,
2013-09-29 13:34:00,74.1,56.4,29.96,NNE,15,4.0,4.0,54,0.00,,,0.00,Wunderground v.1.15,2013-09-29 20:34:00,
2013-09-29 13:44:00,74.8,56.5,29.95,WSW,243,4.0,6.0,53,0.00,,,0.00,Wunderground v.1.15,2013-09-29 20:44:00,
2013-09-29 13:49:00,75.2,56.4,29.95,West,269,4.0,4.0,52,0.00,,,0.00,Wunderground v.1.15,2013-09-29 20:49:00,
2013-09-29 13:55:00,75.2,56.4,29.95,WNW,291,5.0,5.0,52,0.00,,,0.00,Wunderground v.1.15,2013-09-29 20:55:00,
2013-09-29 14:05:00,75.5,56.6,29.95,WNW,295,4.0,4.0,52,0.00,,,0.00,Wunderground v.1.15,2013-09-29 21:05:00,
2013-09-29 14:14:00,75.4,56.0,29.94,West,276,4.0,4.0,51,0.00,,,0.00,Wunderground v.1.15,2013-09-29 21:14:00,
2013-09-29 14:20:00,75.7,56.3,29.94,West,269,4.0,4.0,51,0.00,,,0.00,Wunderground v.1.15,2013-09-29 21:20:00,
2013-09-29 14:29:00,75.8,56.4,29.94,West,273,3.0,4.0,51,0.00,,,0.00,Wunderground v.1.15,2013-09-29 21:29:00,
2013-09-29 14:34:00,76.0,56.0,29.94,SW,214,3.0,5.0,50,0.00,,,0.00,Wunderground v.1.15,2013-09-29 21:34:00,
2013-09-29 14:40:00,75.7,56.3,29.94,West,273,4.0,4.0,51,0.00,,,0.00,Wunderground v.1.15,2013-09-29 21:40:00,
2013-09-29 14:50:00,76.0,57.1,29.94,WSW,252,3.0,3.0,52,0.00,,,0.00,Wunderground v.1.15,2013-09-29 21:50:00,
2013-09-29 15:00:00,76.9,56.8,29.94,South,178,3.0,3.0,50,0.00,,,0.00,Wunderground v.1.15,2013-09-29 22:00:00,
2013-09-29 15:09:00,76.6,56.6,29.94,WSW,248,4.0,4.0,50,0.00,,,0.00,Wunderground v.1.15,2013-09-29 22:09:00,
2013-09-29 15:19:00,76.5,56.5,29.93,WNW,283,3.0,3.0,50,0.00,,,0.00,Wunderground v.1.15,2013-09-29 22:19:00,
2013-09-29 15:30:00,76.8,56.2,29.93,SW,234,4.0,8.0,49,0.00,,,0.00,Wunderground v.1.15,2013-09-29 22:30:00,
2013-09-29 15:40:00,76.4,56.9,29.93,West,278,6.0,6.0,51,0.00,,,0.00,Wunderground v.1.15,2013-09-29 22:40:00,
2013-09-29 15:50:00,76.3,56.8,29.93,West,279,5.0,5.0,51,0.00,,,0.00,Wunderground v.1.15,2013-09-29 22:50:00,
2013-09-29 15:59:00,76.5,57.0,29.92,SW,214,4.0,4.0,51,0.00,,,0.00,Wunderground v.1.15,2013-09-29 22:59:00,
2013-09-29 16:04:00,76.4,56.9,29.92,West,264,5.0,5.0,51,0.00,,,0.00,Wunderground v.1.15,2013-09-29 23:04:00,
2013-09-29 16:15:00,76.2,56.7,29.92,West,270,5.0,6.0,51,0.00,,,0.00,Wunderground v.1.15,2013-09-29 23:15:00,
2013-09-29 16:25:00,76.5,57.0,29.92,West,281,4.0,4.0,51,0.00,,,0.00,Wunderground v.1.15,2013-09-29 23:25:00,
2013-09-29 16:35:00,75.9,56.5,29.92,West,281,6.0,6.0,51,0.00,,,0.00,Wunderground v.1.15,2013-09-29 23:35:00,
2013-09-29 16:44:00,76.0,57.1,29.92,WNW,290,4.0,7.0,52,0.00,,,0.00,Wunderground v.1.15,2013-09-29 23:44:00,
2013-09-29 16:49:00,75.6,56.7,29.92,WNW,291,5.0,5.0,52,0.00,,,0.00,Wunderground v.1.15,2013-09-29 23:49:00,
2013-09-29 16:59:00,75.6,56.7,29.92,WNW,288,4.0,4.0,52,0.00,,,0.00,Wunderground v.1.15,2013-09-29 23:59:00,
2013-09-29 17:04:00,75.5,57.2,29.92,West,271,4.0,4.0,53,0.00,,,0.00,Wunderground v.1.15,2013-09-30 00:04:00,
2013-09-29 17:10:00,75.5,57.2,29.92,West,267,4.0,9.0,53,0.00,,,0.00,Wunderground v.1.15,2013-09-30 00:10:00,
2013-09-29 17:20:00,75.1,57.3,29.92,WSW,253,5.0,7.0,54,0.00,,,0.00,Wunderground v.1.15,2013-09-30 00:20:00,
2013-09-29 17:29:00,74.4,57.2,29.92,SW,229,6.0,6.0,55,0.00,,,0.00,Wunderground v.1.15,2013-09-30 00:29:00,
2013-09-29 17:35:00,74.7,57.5,29.92,WNW,285,4.0,7.0,55,0.00,,,0.00,Wunderground v.1.15,2013-09-30 00:35:00,
2013-09-29 17:44:00,74.6,57.4,29.92,SW,229,5.0,6.0,55,0.00,,,0.00,Wunderground v.1.15,2013-09-30 00:44:00,
2013-09-29 17:49:00,74.2,57.5,29.92,SW,219,5.0,5.0,56,0.00,,,0.00,Wunderground v.1.15,2013-09-30 00:49:00,
2013-09-29 18:00:00,73.6,57.4,29.92,WNW,293,5.0,5.0,57,0.00,,,0.00,Wunderground v.1.15,2013-09-30 01:00:00,
2013-09-29 18:05:00,73.5,57.3,29.92,WNW,285,5.0,6.0,57,0.00,,,0.00,Wunderground v.1.15,2013-09-30 01:05:00,
2013-09-29 18:14:00,72.9,57.3,29.92,WSW,245,5.0,8.0,58,0.00,,,0.00,Wunderground v.1.15,2013-09-30 01:14:00,
2013-09-29 18:20:00,72.5,57.4,29.92,West,272,6.0,6.0,59,0.00,,,0.00,Wunderground v.1.15,2013-09-30 01:20:00,
2013-09-29 18:29:00,71.6,57.4,29.92,WSW,243,5.0,7.0,61,0.00,,,0.00,Wunderground v.1.15,2013-09-30 01:29:00,
2013-09-29 18:34:00,71.2,57.5,29.92,WNW,295,5.0,7.0,62,0.00,,,0.00,Wunderground v.1.15,2013-09-30 01:34:00,
2013-09-29 18:45:00,70.1,57.4,29.92,West,277,5.0,6.0,64,0.00,,,0.00,Wunderground v.1.15,2013-09-30 01:45:00,
2013-09-29 18:50:00,69.8,57.5,29.92,West,278,5.0,5.0,65,0.00,,,0.00,Wunderground v.1.15,2013-09-30 01:50:00,
2013-09-29 19:00:00,69.1,57.7,29.93,West,266,5.0,5.0,67,0.00,,,0.00,Wunderground v.1.15,2013-09-30 02:00:00,
2013-09-29 19:05:00,68.8,58.2,29.93,West,259,4.0,7.0,69,0.00,,,0.00,Wunderground v.1.15,2013-09-30 02:05:00,
2013-09-29 19:14:00,68.3,58.1,29.93,West,270,5.0,5.0,70,0.00,,,0.00,Wunderground v.1.15,2013-09-30 02:14:00,
2013-09-29 19:19:00,68.0,57.8,29.93,WSW,237,6.0,7.0,70,0.00,,,0.00,Wunderground v.1.15,2013-09-30 02:19:00,
2013-09-29 19:30:00,67.5,58.2,29.94,West,277,5.0,5.0,72,0.00,,,0.00,Wunderground v.1.15,2013-09-30 02:30:00,
2013-09-29 19:40:00,67.1,58.2,29.94,WSW,240,5.0,5.0,73,0.00,,,0.00,Wunderground v.1.15,2013-09-30 02:40:00,
2013-09-29 19:50:00,66.6,58.4,29.94,SW,224,4.0,4.0,75,0.00,,,0.00,Wunderground v.1.15,2013-09-30 02:50:00,
2013-09-29 19:59:00,66.1,58.3,29.95,WNW,285,4.0,4.0,76,0.00,,,0.00,Wunderground v.1.15,2013-09-30 02:59:00,
2013-09-29 20:05:00,65.9,58.5,29.95,WSW,255,5.0,5.0,77,0.00,,,0.00,Wunderground v.1.15,2013-09-30 03:05:00,
2013-09-29 20:10:00,65.8,58.4,29.95,WNW,282,5.0,5.0,77,0.00,,,0.00,Wunderground v.1.15,2013-09-30 03:10:00,
2013-09-29 20:19:00,65.5,58.5,29.95,West,268,4.0,4.0,78,0.00,,,0.00,Wunderground v.1.15,2013-09-30 03:19:00,
2013-09-29 20:30:00,65.3,58.3,29.96,SW,231,3.0,3.0,78,0.00,,,0.00,Wunderground v.1.15,2013-09-30 03:30:00,
2013-09-29 20:40:00,65.0,58.3,29.96,WSW,245,0.0,0.0,79,0.00,,,0.00,Wunderground v.1.15,2013-09-30 03:40:00,
2013-09-29 20:50:00,64.7,58.4,29.97,WSW,251,2.0,2.0,80,0.00,,,0.00,Wunderground v.1.15,2013-09-30 03:50:00,
2013-09-29 20:59:00,64.5,58.2,29.97,West,262,2.0,2.0,80,0.00,,,0.00,Wunderground v.1.15,2013-09-30 03:59:00,
2013-09-29 21:04:00,64.5,58.2,29.97,WSW,252,3.0,3.0,80,0.00,,,0.00,Wunderground v.1.15,2013-09-30 04:04:00,
2013-09-29 21:09:00,64.5,58.2,29.97,WSW,254,3.0,3.0,80,0.00,,,0.00,Wunderground v.1.15,2013-09-30 04:09:00,
2013-09-29 21:19:00,64.4,58.4,29.98,SW,231,3.0,3.0,81,0.00,,,0.00,Wunderground v.1.15,2013-09-30 04:19:00,
2013-09-29 21:25:00,64.3,58.3,29.98,SW,226,3.0,4.0,81,0.00,,,0.00,Wunderground v.1.15,2013-09-30 04:25:00,
2013-09-29 21:30:00,64.2,58.6,29.97,West,281,3.0,3.0,82,0.00,,,0.00,Wunderground v.1.15,2013-09-30 04:30:00,
2013-09-29 21:35:00,64.0,58.7,29.97,WSW,243,3.0,4.0,83,0.00,,,0.00,Wunderground v.1.15,2013-09-30 04:35:00,
2013-09-29 21:44:00,63.7,58.4,29.97,WSW,257,2.0,3.0,83,0.00,,,0.00,Wunderground v.1.15,2013-09-30 04:44:00,
2013-09-29 21:50:00,63.6,58.3,29.97,WSW,239,2.0,2.0,83,0.00,,,0.00,Wunderground v.1.15,2013-09-30 04:50:00,
2013-09-29 21:59:00,63.3,58.4,29.97,SSW,200,1.0,2.0,84,0.00,,,0.00,Wunderground v.1.15,2013-09-30 04:59:00,
2013-09-29 22:04:00,63.1,58.5,29.97,SW,217,1.0,2.0,85,0.00,,,0.00,Wunderground v.1.15,2013-09-30 05:04:00,
2013-09-29 22:15:00,62.8,58.2,29.97,SSW,192,1.0,1.0,85,0.00,,,0.00,Wunderground v.1.15,2013-09-30 05:15:00,
2013-09-29 22:20:00,62.6,58.4,29.97,SSW,205,1.0,1.0,86,0.00,,,0.00,Wunderground v.1.15,2013-09-30 05:20:00,
2013-09-29 22:30:00,62.2,58.0,29.97,SW,224,1.0,1.0,86,0.00,,,0.00,Wunderground v.1.15,2013-09-30 05:30:00,
2013-09-29 22:35:00,62.2,58.0,29.97,SW,236,1.0,1.0,86,0.00,,,0.00,Wunderground v.1.15,2013-09-30 05:35:00,
2013-09-29 22:44:00,61.8,57.6,29.96,SW,234,0.0,0.0,86,0.00,,,0.00,Wunderground v.1.15,2013-09-30 05:44:00,
2013-09-29 22:50:00,61.5,57.3,29.96,SW,234,0.0,0.0,86,0.00,,,0.00,Wunderground v.1.15,2013-09-30 05:50:00,
2013-09-29 23:00:00,61.1,57.2,29.96,SW,234,0.0,0.0,87,0.00,,,0.00,Wunderground v.1.15,2013-09-30 06:00:00,
2013-09-29 23:05:00,60.8,56.9,29.97,SW,236,0.0,0.0,87,0.00,,,0.00,Wunderground v.1.15,2013-09-30 06:05:00,
2013-09-29 23:14:00,60.3,56.7,29.97,SW,234,0.0,0.0,88,0.00,,,0.00,Wunderground v.1.15,2013-09-30 06:14:00,
2013-09-29 23:20:00,59.8,55.9,29.97,SW,236,0.0,0.0,87,0.00,,,0.00,Wunderground v.1.15,2013-09-30 06:20:00,
2013-09-29 23:29:00,59.5,56.3,29.96,SW,234,0.0,0.0,89,0.00,,,0.00,Wunderground v.1.15,2013-09-30 06:29:00,
2013-09-29 23:34:00,59.5,56.3,29.96,SW,234,0.0,0.0,89,0.00,,,0.00,Wunderground v.1.15,2013-09-30 06:34:00,
2013-09-29 23:45:00,58.7,55.5,29.96,SW,234,0.0,0.0,89,0.00,,,0.00,Wunderground v.1.15,2013-09-30 06:45:00,
2013-09-29 23:55:00,58.1,55.2,29.97,SW,234,0.0,0.0,90,0.00,,,0.00,Wunderground v.1.15,2013-09-30 06:55:00,